Weather History for Minneapolis Flying Cloud, MN

Change the Weather History Date:

Monday, January 14, 2013

  Actual Average Record
Temperature  
Mean Temperature 8 °F -  
Max Temperature 12 °F 21 °F 35 °F (2001)
Min Temperature 3 °F 6 °F -17 °F (2009)
Degree Days  
Heating Degree Days 58    
Moisture  
Dew Point 1 °F    
Average Humidity 73    
Maximum Humidity 84    
Minimum Humidity 59    
Precipitation  
Precipitation 0.00 in - - ()
Sea Level Pressure  
Sea Level Pressure 30.39 in    
Wind  
Wind Speed 5 mph (SW)    
Max Wind Speed 9 mph    
Max Gust Speed -    
Visibility 10 miles    
Events      
Averages and records for this station are not official NWS values.
T = Trace of Precipitation, MM = Missing Value Source: NWS Daily Summary

Daily Weather History Graph

Daily Weather History Graph

Search for Another Location

Airport:

Trip Planner

Search our weather history database for the weather conditions in past years. The results will help you decide how hot, cold, wet, or windy it might be!

Date:

Astronomy

Jan. 14, 2013 Rise Set
Actual Time 7:48 AM CST 4:58 PM CST
Civil Twilight 7:15 AM CST 5:30 PM CST
Nautical Twilight 6:39 AM CST 6:07 PM CST
Astronomical Twilight 6:04 AM CST 6:42 PM CST
Moon 9:11 AM CST (1/14) 8:56 PM CST (1/14)
Length of Visible Light 10h 15m
Length of Day
9h 09m
Waxing Crescent, 11% of the Moon is Illuminated
Jan 14
Waxing Crescent
Jan 18
First Quarter
Jan 26
Full
Feb 3
Last Quarter
Feb 10
New

Hourly Weather History & Observations

Time (CST) Temp. Windchill Dew Point Humidity Pressure Visibility Wind Dir Wind Speed Gust Speed Precip Events Conditions
12:53 AM 3.9 °F -6.9 °F -0.9 °F 80% 30.30 in 10.0 mi WSW 5.8 mph - N/A   Clear
1:53 AM 3.9 °F -6.9 °F -0.9 °F 80% 30.32 in 10.0 mi SW 5.8 mph - N/A   Clear
2:53 AM 3.9 °F -6.9 °F -0.0 °F 84% 30.32 in 10.0 mi WSW 5.8 mph - N/A   Clear
3:53 AM 3.9 °F -5.3 °F -0.0 °F 84% 30.33 in 10.0 mi WSW 4.6 mph - N/A   Clear
4:53 AM 3.9 °F -8.2 °F -0.0 °F 84% 30.35 in 10.0 mi WSW 6.9 mph - N/A   Clear
6:53 AM 6.1 °F - 1.9 °F 83% 30.38 in 10.0 mi Calm Calm - N/A   Overcast
7:53 AM 7.0 °F -5.7 °F -0.0 °F 73% 30.41 in 10.0 mi West 8.1 mph - N/A   Overcast
8:53 AM 6.1 °F -6.8 °F -0.0 °F 76% 30.44 in 10.0 mi West 8.1 mph - N/A   Overcast
9:29 AM 6.8 °F -2.0 °F -0.4 °F 72% 30.39 in 10.0 mi West 4.6 mph - N/A   Scattered Clouds
9:53 AM 7.0 °F -4.5 °F -0.0 °F 73% 30.45 in 10.0 mi West 6.9 mph - N/A   Clear
10:53 AM 9.0 °F -4.2 °F -0.0 °F 67% 30.46 in 10.0 mi West 9.2 mph - N/A   Clear
11:53 AM 10.0 °F -2.9 °F -0.0 °F 64% 30.44 in 10.0 mi West 9.2 mph - N/A   Mostly Cloudy
1:53 PM 12.0 °F 2.7 °F 1.9 °F 64% 30.42 in 10.0 mi WNW 5.8 mph - N/A   Clear
2:53 PM 12.9 °F 3.8 °F 1.0 °F 59% 30.43 in 10.0 mi West 5.8 mph - N/A   Clear
3:53 PM 12.9 °F - 1.0 °F 59% 30.42 in 10.0 mi Calm Calm - N/A   Clear
4:53 PM 10.9 °F 1.4 °F 1.0 °F 64% 30.42 in 10.0 mi SSW 5.8 mph - N/A   Clear
5:53 PM 10.0 °F - 1.9 °F 70% 30.41 in 10.0 mi Calm Calm - N/A   Clear
6:53 PM 9.0 °F 2.4 °F 1.9 °F 73% 30.40 in 10.0 mi South 3.5 mph - N/A   Partly Cloudy
7:53 PM 10.0 °F 3.6 °F 3.0 °F 73% 30.39 in 10.0 mi SSE 3.5 mph - N/A   Overcast
8:53 PM 9.0 °F 0.6 °F 3.0 °F 77% 30.38 in 10.0 mi ESE 4.6 mph - N/A   Scattered Clouds
9:53 PM 9.0 °F 0.6 °F 3.0 °F 77% 30.35 in 10.0 mi ESE 4.6 mph - N/A   Clear
10:53 PM 9.0 °F 0.6 °F 1.9 °F 73% 30.34 in 10.0 mi ESE 4.6 mph - N/A   Clear
11:53 PM 9.0 °F 0.6 °F 3.0 °F 77% 30.32 in 9.0 mi SSE 4.6 mph - N/A   Clear